Weather History for KSBM - March, 2013

Change the Weather History Date:

Tuesday, March 5, 2013

  Actual Average Record
Temperature  
Mean Temperature 28 °F -  
Max Temperature 30 °F 38 °F 54 °F (1974)
Min Temperature 26 °F 24 °F -4 °F (2015)
Degree Days  
Heating Degree Days 37    
Moisture  
Dew Point 22 °F    
Average Humidity 77    
Maximum Humidity 85    
Minimum Humidity 66    
Precipitation  
Precipitation 0.00 in - - ()
Sea Level Pressure  
Sea Level Pressure 30.00 in    
Wind  
Wind Speed 11 mph (NE)    
Max Wind Speed 18 mph    
Max Gust Speed 26 mph    
Visibility 10 miles    
Events      
Averages and records for this station are not official NWS values.
T = Trace of Precipitation, MM = Missing Value Source: NWS Daily Summary

Daily Weather History Graph

Daily Weather History Graph

Search for Another Location

Airport or City:

Trip Planner

Search our weather history database for the weather conditions in past years. The results will help you decide how hot, cold, wet, or windy it might be!

Date:

Astronomy

Mar. 05, 2013 Rise Set
Actual Time 6:20 AM CST 5:45 PM CST
Civil Twilight 5:52 AM CST 6:14 PM CST
Nautical Twilight 5:18 AM CST 6:47 PM CST
Astronomical Twilight 4:45 AM CST 7:21 PM CST
Moon 1:41 AM CST (3/5) 11:15 AM CST (3/5)
Length of Visible Light 12h 22m
Length of Day
11h 24m
Last Quarter, 40% of the Moon is Illuminated
Mar 5
Last Quarter
Mar 11
New
Mar 19
First Quarter
Mar 27
Full
Apr 2
Last Quarter

Hourly Weather History & Observations

Time (CST) Temp. Windchill Dew Point Humidity Pressure Visibility Wind Dir Wind Speed Gust Speed Precip Events Conditions
1:53 AM 30.0 °F 23.2 °F 25.0 °F 82% 30.07 in 10.0 mi ENE 6.9 mph - N/A   Overcast
2:53 AM 30.9 °F 24.3 °F 25.0 °F 79% 30.05 in 10.0 mi East 6.9 mph - N/A   Overcast
3:53 AM 30.9 °F 22.8 °F 21.9 °F 69% 30.04 in 10.0 mi East 9.2 mph - N/A   Overcast
4:53 AM 30.0 °F 21.1 °F 21.0 °F 69% 30.03 in 10.0 mi East 10.4 mph - N/A   Overcast
7:53 AM 28.9 °F 17.7 °F 19.9 °F 69% 30.01 in 10.0 mi ESE 15.0 mph - N/A   Overcast
8:53 AM 28.9 °F 18.2 °F 21.0 °F 72% 30.02 in 10.0 mi East 13.8 mph 19.6 mph N/A   Overcast
9:53 AM 28.9 °F 21.1 °F 21.9 °F 75% 30.03 in 10.0 mi ESE 8.1 mph - N/A   Overcast
10:53 AM 30.0 °F 22.4 °F 19.9 °F 66% 30.01 in 10.0 mi East 8.1 mph - N/A   Overcast
11:53 AM 28.9 °F 18.2 °F 21.9 °F 75% 29.99 in 10.0 mi NE 13.8 mph - N/A   Overcast
12:53 PM 28.9 °F 16.5 °F 21.9 °F 75% 29.96 in 10.0 mi NE 18.4 mph - N/A   Overcast
1:53 PM 30.0 °F 18.7 °F 21.9 °F 72% 29.95 in 10.0 mi NE 16.1 mph - N/A   Overcast
2:53 PM 28.9 °F 16.9 °F 23.0 °F 78% 29.95 in 10.0 mi NNE 17.3 mph - N/A   Overcast
3:07 PM 28.4 °F 15.8 °F 23.0 °F 80% 29.92 in 10.0 mi NNE 18.4 mph - N/A   Overcast
3:20 PM 30.2 °F 19.8 °F 23.0 °F 75% 29.93 in 10.0 mi NNE 13.8 mph - N/A   Overcast
3:27 PM 30.2 °F 18.9 °F 24.8 °F 80% 29.92 in 10.0 mi NNE 16.1 mph 20.7 mph N/A   Overcast
3:53 PM 28.9 °F 18.2 °F 23.0 °F 78% 29.96 in 10.0 mi NNE 13.8 mph 26.5 mph N/A   Overcast
4:53 PM 28.0 °F 18.6 °F 23.0 °F 81% 29.98 in 10.0 mi North 10.4 mph 19.6 mph N/A   Overcast
5:14 PM 28.4 °F 17.0 °F 23.0 °F 80% 29.96 in 10.0 mi North 15.0 mph 24.2 mph N/A   Overcast
5:53 PM 27.0 °F 16.1 °F 23.0 °F 85% 30.00 in 10.0 mi North 12.7 mph 24.2 mph N/A   Overcast
6:25 PM 26.6 °F 15.2 °F 21.2 °F 80% 29.98 in 10.0 mi North 13.8 mph 20.7 mph N/A   Overcast
6:53 PM 27.0 °F 16.7 °F 21.9 °F 81% 30.02 in 10.0 mi North 11.5 mph - N/A   Overcast
7:37 PM 28.4 °F 19.1 °F 23.0 °F 80% 29.99 in 10.0 mi North 10.4 mph - N/A   Overcast
7:53 PM 28.0 °F 17.5 °F 21.9 °F 78% 30.02 in 10.0 mi North 12.7 mph 19.6 mph N/A   Overcast
8:53 PM 28.0 °F 16.5 °F 21.9 °F 78% 30.03 in 10.0 mi North 15.0 mph 24.2 mph N/A   Overcast
9:53 PM 28.0 °F 18.1 °F 21.9 °F 78% 30.05 in 10.0 mi North 11.5 mph 19.6 mph N/A   Overcast
10:53 PM 27.0 °F 16.1 °F 21.9 °F 81% 30.06 in 10.0 mi North 12.7 mph - N/A   Overcast
11:53 PM 26.1 °F 15.6 °F 21.0 °F 81% 30.07 in 10.0 mi North 11.5 mph 19.6 mph N/A   Overcast